Tracking 32936 objects as of 17-Jan-2026
HD Live streaming from Space Station
objects crossing your sky now

STARLINK-33862

Track STARLINK-33862 now!
10-day predictions
STARLINK-33862 is classified as:


NORAD ID: 63709
Int'l Code: 2025-087N
Perigee: 481.5 km
Apogee: 483.1 km
Inclination: 53.2 °
Period: 94.1 minutes
Semi major axis: 6853 km
RCS: Unknown
Launch date: April 28, 2025
Source: United States (US)
Launch site: AIR FORCE WESTERN TEST RANGE (AFWTR)
Your satellite tracking list
Your tracking list is empty




NASA's NSSDC Master Catalog

Two Line Element Set (TLE):
1 63709U 25087N   26016.52679873  .00012601  00000-0  43680-3 0  9993
2 63709  53.1586 101.8216 0001168  97.1292 262.9841 15.30203431 41212
Source of the keplerian elements: AFSPC